User: anonymous   Login
Location: Napier
(39.4830°S, 176.9170°E)
Time: 18:00:25
(UTC+13:00)
Language:

Cosmos 1763 Rocket - Orbit

View from above orbital plane
View from above orbital plane
View from above satellite
View from above satellite

Ground track
Ground track

The orbit data is extracted from the following two-line orbital elements,

1 16864U 86052B   19318.16135772 -.00000003  00000-0  72853-5 0  9994
2 16864  74.0285 265.7636 0032353 147.6779 212.6367 14.40558826749634
Epoch (UTC): 14 November 2019 03:52:21
Eccentricity: 0.0032353
inclination: 74.0285°
perigee height: 733 km
apogee height: 780 km
right ascension of ascending node: 265.7636°
argument of perigee: 147.6779°
revolutions per day: 14.40558826
mean anomaly at epoch: 212.6367°
orbit number at epoch: 74963

The dashed part of the orbit path shows where the satellite is in the earth's shadow,  

DLR